Regional Weather Roundup
Issued by NWS

Home | Current Version | Previous Version | Graphics & Text | Print | Product List | Glossary On
Versions: 1 2 3 4 5 6 7 8 9 10 11 12 13 14 15 16 17 18 19 20 21 22 23 24 25 26 27 28 29 30 31 32 33 34 35 36 37 38 39 40 41 42 43 44 45 46 47 48 49 50
000
ASUS43 KMKX 201721
RWRWI

WISCONSIN REGIONAL WEATHER ROUNDUP
NATIONAL WEATHER SERVICE MILWAUKEE/SULLIVAN WI
1200 PM CDT WED AUG 20 2014

NOTE: "FAIR" INDICATES FEW OR NO CLOUDS BELOW 12,000 FEET WITH NO
SIGNIFICANT WEATHER AND/OR OBSTRUCTIONS TO VISIBILITY.

WIZ001-002-006>008-014>016-023>028-201800-
NORTHWEST WISCONSIN

CITY           SKY/WX    TMP DP  RH WIND       PRES   REMARKS
SUPERIOR ARPT  CLOUDY    67  62  83 SW6       29.90S
ASHLAND        CLOUDY    68  60  75 CALM      29.91R
HAYWARD        CLOUDY    67  59  75 CALM      29.92S
SIREN          MOSUNNY   71  60  66 E7        29.88F
RICE LAKE      MOSUNNY   71  59  66 N10G16    29.90F
LADYSMITH      CLOUDY    68  61  78 CALM      29.92F
EAU CLAIRE     PTSUNNY   71  61  70 SE5       29.90R
MENOMONIE      PTSUNNY   74  61  63 S5        29.90S
NEW RICHMOND   MOSUNNY   72  63  73 E7        29.89R
OSCEOLA        MOSUNNY   73  66  77 SE7       29.91R
$$

WIZ003>005-009-010-017-018-201800-
NORTH CENTRAL WISCONSIN

CITY           SKY/WX    TMP DP  RH WIND       PRES   REMARKS
WOODRUFF       CLOUDY    72  62  70 CALM      29.91S
RHINELANDER    CLOUDY    65  58  78 N3        29.92R
EAGLE RIVER    CLOUDY    66  56  70 CALM      29.91R
LAND O LAKES   CLOUDY    66  58  75 NW6       29.91S
PHILLIPS       CLOUDY    65  59  80 CALM      29.91S
TOMAHAWK       CLOUDY    65  58  76 CALM      29.92R
MEDFORD        CLOUDY    67  60  80 N5        29.91S
MERRILL        CLOUDY    66  61  83 CALM      29.91S
$$

WIZ029-030-035-036-043>047-201800-
CENTRAL WISCONSIN

CITY           SKY/WX    TMP DP  RH WIND       PRES   REMARKS
WAUSAU         CLOUDY    68  60  75 N5        29.89S
MOSINEE        CLOUDY    64  63  94 CALM      29.92S
MARSHFIELD     CLOUDY    66  60  81 CALM      29.92R
STEVENS POINT  CLOUDY    64  59  83 W3        29.93R
WAUPACA        CLOUDY    69  62  76 NW5       29.91R
WAUTOMA        PTSUNNY   77  63  61 NW8       29.90R
WISC RAPIDS    MOSUNNY   72  61  68 S6        29.92R
CAMP DOUGLAS   MOSUNNY   77  70  78 VRB5      29.90R
$$

WIZ011>013-019>022-031-037>040-048>050-201800-
NORTHEAST WISCONSIN

CITY           SKY/WX    TMP DP  RH WIND       PRES   REMARKS
ANTIGO         CLOUDY    66  60  81 CALM      29.91S
STURGEON BAY   CLOUDY    64  61  88 N3        29.89S
GREEN BAY      CLOUDY    67  61  81 N6        29.88F
MANITOWOC      CLOUDY    71  62  73 VRB7      29.89R
APPLETON       PTSUNNY   70  63  78 NW6       29.89S
CLINTONVILLE   CLOUDY    66  59  77 NE6       29.89F
OSHKOSH        PTSUNNY   74  65  73 NE6       29.89R
$$

WIZ032>034-041-042-053>061-201800-
SOUTHWEST WISCONSIN

CITY           SKY/WX    TMP DP  RH WIND       PRES   REMARKS
LA CROSSE      SUNNY     79  66  64 CALM      29.88F HX  81
SPARTA         SUNNY     75  62  64 CALM      29.90F
VIROQUA        FAIR      78  65  64 W3        29.91F HX  80
BOSCOBEL       MOSUNNY   84  66  54 SW10      29.89S HX  86
PRAIRIE DU CHI PTSUNNY   80  66  62 S8        29.89F HX  81
PLATTEVILLE    FAIR      79  70  73 SW9       29.93R HX  81
$$

WIZ056-057-062-063-064-067-068-201800-
SOUTH CENTRAL WISCONSIN

CITY           SKY/WX    TMP DP  RH WIND       PRES   REMARKS
BARABOO/DELLS  PTSUNNY   81  62  52 SW6       29.90S HX  82
LONE ROCK      MOSUNNY   85  65  51 W12       29.89R HX  86
WATERTOWN      MOSUNNY   76  66  69 W7        29.89R
MADISON        MOSUNNY   81  64  56 VRB5      29.89S HX  82
MIDDLETON      PTSUNNY   82  64  55 W9        29.90R HX  83
MONROE         PTSUNNY   79  68  69 SW10G16   29.92R HX  81
JANESVILLE     SUNNY     84  63  48 W12       29.89R HX  85
$$

WIZ051-052-058>065-066-070>072-201800-
SOUTHEAST WISCONSIN

CITY           SKY/WX    TMP DP  RH WIND       PRES   REMARKS
MILWAUKEE      MOSUNNY   77  63  61 W9        29.88R
WAUKESHA       PTSUNNY   75  63  64 W8        29.90R
MILWAUKEE/TIMM NOT AVBL
RACINE         SUNNY     79  64  60 W8        29.90R HX  81
BURLINGTON     MOSUNNY   79  64  61 W7        29.90R HX  81
KENOSHA        MOSUNNY   80  65  59 W9        29.89R HX  82
FOND DU LAC    CLOUDY    73  64  73 VRB7      29.89R
SHEBOYGAN      CLOUDY    75  63  66 NW8       29.88S
WEST BEND      PTSUNNY   75  61  60 NW6       29.89R
JUNEAU         MOSUNNY   76  40  27 W6        29.90S
$$

LSZ147-162-201800-
LAKE SUPERIOR

STATION/POSITION TIME  TEMP    WIND        PRES    WAVE
                       AIR SEA DIR/SP/G            HT/PER
                 (UTC) (F)     (DEG/KT/KT) (MB)    (FT/S)
W MID LAKE BUOY  1650   59 56  310/  4/  4 1012.3R   1
DEVILS ISLAND    1700   64     240/  6/  6 1012.5R
PORT WING        1640   64     320/  4/  4 1012.9R
SAXON HARBOR     1640   65        CALM     1012.9R
$$

LMZ867-665-643>646-201800-
LAKE MICHIGAN

STATION/POSITION TIME  TEMP    WIND        PRES    WAVE
                       AIR SEA DIR/SP/G            HT/PER
                 (UTC) (F)     (DEG/KT/KT) (MB)    (FT/S)
N MID LAKE BUOY  1650   61 62  290/  8/  8 1010.7R   1/ 3
NORTHPORT PIER   1600   63     330/  4/  5 1011.2R
SISTER BAY       1626   66     350/  7/  8   N/A
KEWAUNEE LAKESHO 1700   67     320/  5/  6 1011.3R
SHEBOYGAN LAKESH 1700   65 65   60/  6/  7 1012.0R
ATWATER BUOY     1700   70     120/  6/  6 1013.1R
MILWAUKEE LAKESH 1700   69     110/  4/  5   N/A
S MID LAKE BUOY  1650   69 69  240/  2/  4 1012.4R   0
KENOSHA   LAKESH 1700   76     130/  4/  7 1011.5R
$$

TC  - TEMPERATURE IN CELSIUS
VSB - VISIBILITY IN STATUTE MILES
WCI - WIND CHILL INDEX
HX  - HEAT INDEX



USA.gov is the U.S. government's official web portal to all federal, state and local government web resources and services.